"2017-08-23 03:40:00",24.7,24.7,24.7,40.0,10.2,4.3,8.6,180.0,0.000,0.000,1012.300,0.0,24.0
"2017-08-23 05:55:00",23.0,23.0,23.0,48.0,11.4,2.0,7.2,315.0,0.000,0.000,1012.600,0.0,23.0
"2017-08-23 08:10:00",26.6,26.6,26.6,39.0,11.5,4.5,6.1,45.0,0.000,0.000,1013.300,0.0,26.2
"2017-08-23 09:55:00",28.9,28.9,28.8,36.0,12.4,4.0,9.7,45.0,0.000,0.000,1013.700,0.0,28.8
"2017-08-23 10:10:00",29.6,29.6,29.4,35.0,12.5,4.2,11.2,0.0,0.000,0.000,1013.700,0.0,29.5
"2017-08-23 10:15:00",29.7,29.7,29.6,35.0,12.6,4.2,11.2,131.0,0.000,0.000,1013.800,0.0,29.7
"2017-08-23 10:20:00",30.1,30.3,29.9,34.0,12.6,4.1,11.2,0.0,0.000,0.000,1013.700,0.0,30.1
"2017-08-23 10:25:00",30.5,30.7,30.3,33.0,12.5,3.9,11.2,9.0,0.000,0.000,1013.700,0.0,30.5
"2017-08-23 10:30:00",30.8,30.8,30.8,32.5,12.5,4.0,11.2,10.0,0.000,0.000,1013.700,0.0,30.8
"2017-08-23 10:35:00",30.6,30.7,30.5,32.0,12.1,4.2,11.2,9.0,0.000,0.000,1013.700,0.0,30.4
"2017-08-23 10:40:00",30.6,30.6,30.5,32.2,12.1,4.3,11.2,9.0,0.000,0.000,1013.800,0.0,30.4
"2017-08-23 10:45:00",30.6,30.6,30.5,32.0,12.1,4.3,12.2,25.0,0.000,0.000,1013.700,0.0,30.3
"2017-08-23 10:50:00",30.6,30.6,30.5,31.2,11.7,4.3,12.2,85.0,0.000,0.000,1013.700,0.0,30.2
"2017-08-23 10:55:00",30.6,30.8,30.5,31.2,11.7,4.2,12.2,75.0,0.000,0.000,1013.700,0.0,30.2
"2017-08-23 11:00:00",31.0,31.1,30.8,30.5,11.7,4.0,11.2,282.0,0.000,0.000,1013.700,0.0,30.8
"2017-08-23 11:05:00",31.4,31.4,31.3,29.5,11.5,4.2,11.2,22.0,0.000,0.000,1013.600,0.0,31.0
"2017-08-23 11:10:00",31.3,31.3,31.3,29.0,11.2,4.5,11.2,4.0,0.000,0.000,1013.500,0.0,30.8
"2017-08-23 11:15:00",31.3,31.3,31.3,29.0,11.2,4.4,11.2,62.0,0.000,0.000,1013.500,0.0,30.8
"2017-08-23 11:20:00",31.3,31.3,31.3,29.0,11.2,4.3,11.2,35.0,0.000,0.000,1013.500,0.0,30.8
"2017-08-23 11:25:00",31.5,31.6,31.3,29.0,11.4,4.4,11.2,5.0,0.000,0.000,1013.400,0.0,31.0
"2017-08-23 11:30:00",28.4,28.5,28.3,36.8,12.2,4.9,9.7,0.0,0.000,0.000,1013.600,0.0,28.1
"2017-08-23 11:35:00",28.6,28.6,28.5,36.3,12.2,4.7,11.2,45.0,0.000,0.000,1013.700,0.0,28.3
"2017-08-23 11:40:00",28.5,28.5,28.4,36.0,12.0,5.4,11.2,79.0,0.000,0.000,1013.700,0.0,28.0
"2017-08-23 11:45:00",28.5,28.6,28.5,36.0,12.0,4.8,11.2,14.0,0.000,0.000,1013.800,0.0,28.2
"2017-08-23 11:50:00",28.6,28.7,28.6,36.0,12.1,4.3,9.7,45.0,0.000,0.000,1013.700,0.0,28.4
"2017-08-23 11:55:00",32.4,32.6,32.3,27.0,11.1,4.5,12.2,279.0,0.000,0.000,1013.200,0.0,31.9
"2017-08-23 12:00:00",32.7,32.7,32.6,26.8,11.2,3.8,12.2,187.0,0.000,0.000,1013.100,0.0,32.3
"2017-08-23 12:05:00",32.8,32.8,32.8,27.0,11.4,2.9,9.7,315.0,0.000,0.000,1013.000,0.0,32.7
"2017-08-23 12:10:00",32.8,32.9,32.8,26.6,11.2,1.5,13.3,332.0,0.000,0.000,1013.000,0.0,32.9
"2017-08-23 12:15:00",32.9,32.9,32.9,26.2,11.1,3.6,18.4,27.0,0.000,0.000,1013.000,0.0,32.5
"2017-08-23 12:20:00",32.8,32.9,32.7,26.0,10.9,7.0,18.4,282.0,0.000,0.000,1012.900,0.0,31.7
"2017-08-23 12:25:00",32.9,33.0,32.8,26.8,11.4,7.6,20.9,320.0,0.000,0.000,1012.900,0.0,31.8
"2017-08-23 12:30:00",33.2,33.3,33.1,27.8,12.2,6.7,20.9,355.0,0.000,0.000,1012.900,0.0,32.5
"2017-08-23 12:35:00",33.4,33.4,33.3,27.0,12.0,6.4,20.9,290.0,0.000,0.000,1012.800,0.0,32.7
"2017-08-23 12:40:00",33.6,33.7,33.5,26.4,11.8,4.9,27.0,350.0,0.000,0.000,1012.800,0.0,33.1
"2017-08-23 12:45:00",33.6,33.7,33.6,26.0,11.6,7.0,27.0,0.0,0.000,0.000,1012.700,0.0,32.7
"2017-08-23 12:50:00",33.5,33.6,33.4,26.0,11.5,8.0,27.0,5.0,0.000,0.000,1012.600,0.0,32.4
"2017-08-23 12:55:00",33.4,33.4,33.4,26.0,11.4,4.9,24.5,0.0,0.000,0.000,1012.600,0.0,32.9
"2017-08-23 13:00:00",33.6,33.7,33.4,26.0,11.5,3.9,11.2,279.0,0.000,0.000,1012.500,0.0,33.2
"2017-08-23 13:05:00",34.3,34.6,34.0,25.0,11.5,4.0,11.2,141.0,0.000,0.000,1012.500,0.0,33.9
"2017-08-23 13:10:00",34.7,34.8,34.6,24.0,11.3,4.4,14.8,270.0,0.000,0.000,1012.400,0.0,34.2
"2017-08-23 13:15:00",35.0,35.1,34.9,23.2,11.1,5.2,14.8,135.0,0.000,0.000,1012.400,0.0,34.3
"2017-08-23 13:20:00",35.2,35.2,35.2,22.0,10.4,5.4,14.8,13.0,0.000,0.000,1012.400,0.0,34.3
"2017-08-23 13:25:00",35.0,35.1,34.9,22.4,10.5,6.0,13.3,349.0,0.000,0.000,1012.300,0.0,34.0
"2017-08-23 13:30:00",34.6,34.8,34.3,23.3,10.7,7.3,17.3,22.0,0.000,0.000,1012.300,0.0,33.3
"2017-08-23 13:35:00",34.1,34.1,34.0,24.0,10.8,8.7,18.4,322.0,0.000,0.000,1012.200,0.0,32.6
"2017-08-23 13:40:00",34.0,34.1,34.0,24.0,10.7,9.5,20.9,349.0,0.000,0.000,1012.200,0.0,32.4
"2017-08-23 13:45:00",34.1,34.3,34.1,24.0,10.8,9.8,20.9,325.0,0.000,0.000,1012.000,0.0,32.5
"2017-08-23 13:50:00",34.2,34.3,34.2,24.0,10.9,8.3,20.9,9.0,0.000,0.000,1012.000,0.0,32.9
"2017-08-23 13:55:00",34.4,34.6,34.1,24.0,11.0,6.3,14.8,90.0,0.000,0.000,1011.900,0.0,33.5
"2017-08-23 14:00:00",35.1,35.3,34.9,23.3,11.2,5.4,14.8,270.0,0.000,0.000,1012.000,0.0,34.4
"2017-08-23 14:05:00",35.3,35.3,35.3,22.0,10.5,5.7,11.2,292.0,0.000,0.000,1011.900,0.0,34.3
"2017-08-23 14:10:00",34.8,35.3,34.4,23.2,10.8,9.0,30.6,342.0,0.000,0.000,1011.700,0.0,33.3
"2017-08-23 14:15:00",34.2,34.3,34.1,24.0,10.9,13.7,30.6,27.0,0.000,0.000,1011.700,0.0,31.8
"2017-08-23 14:20:00",34.1,34.2,34.1,24.0,10.8,15.6,30.6,9.0,0.000,0.000,1011.700,0.0,31.3
"2017-08-23 14:25:00",34.2,34.4,34.1,24.0,10.9,12.4,27.0,45.0,0.000,0.000,1011.700,0.0,32.1
"2017-08-23 14:30:00",34.7,34.8,34.5,24.0,11.3,9.6,22.0,0.0,0.000,0.000,1011.700,0.0,33.2
"2017-08-23 14:35:00",34.7,34.8,34.7,24.0,11.3,9.1,28.1,45.0,0.000,0.000,1011.600,0.0,33.3
"2017-08-23 14:40:00",34.6,34.8,34.5,24.0,11.2,11.1,28.1,346.0,0.000,0.000,1011.500,0.0,32.8
"2017-08-23 14:45:00",34.6,34.7,34.4,24.0,11.2,11.9,28.1,20.0,0.000,0.000,1011.500,0.0,32.6
"2017-08-23 14:50:00",35.0,35.2,34.7,23.2,11.0,9.6,25.6,264.0,0.000,0.000,1011.500,0.0,33.4
"2017-08-23 14:55:00",35.3,35.5,35.3,22.2,10.7,8.6,24.5,315.0,0.000,0.000,1011.500,0.0,33.8
"2017-08-23 15:00:00",35.6,35.7,35.6,22.0,10.8,8.0,20.9,292.0,0.000,0.000,1011.500,0.0,34.3
"2017-08-23 15:05:00",35.7,35.7,35.6,22.0,10.8,8.2,20.9,290.0,0.000,0.000,1011.500,0.0,34.3
"2017-08-23 15:10:00",35.6,35.6,35.5,22.0,10.8,7.8,20.9,317.0,0.000,0.000,1011.400,0.0,34.3
"2017-08-23 15:15:00",35.5,35.6,35.5,22.0,10.7,6.5,18.4,261.0,0.000,0.000,1011.400,0.0,34.5
"2017-08-23 15:20:00",35.4,35.6,35.3,22.0,10.6,6.6,18.4,16.0,0.000,0.000,1011.300,0.0,34.3
"2017-08-23 15:25:00",35.4,35.6,35.2,22.0,10.6,6.6,17.3,288.0,0.000,0.000,1011.300,0.0,34.3
"2017-08-23 15:30:00",35.7,35.7,35.7,22.0,10.8,6.7,19.4,270.0,0.000,0.000,1011.300,0.0,34.6
"2017-08-23 15:35:00",35.7,35.7,35.7,22.0,10.8,7.2,19.4,247.0,0.000,0.000,1011.200,0.0,34.5
"2017-08-23 15:40:00",35.7,35.7,35.7,21.4,10.4,6.8,19.4,300.0,0.000,0.000,1011.300,0.0,34.5
"2017-08-23 15:45:00",36.0,36.0,36.0,20.0,9.7,6.9,18.4,297.0,0.000,0.000,1011.300,0.0,34.6
"2017-08-23 15:50:00",36.0,36.0,36.0,20.0,9.7,7.1,15.8,315.0,0.000,0.000,1011.200,0.0,34.5
"2017-08-23 15:55:00",36.0,36.1,36.0,20.0,9.7,6.8,15.8,341.0,0.000,0.000,1011.100,0.0,34.6
"2017-08-23 16:00:00",36.1,36.1,36.0,20.0,9.8,5.9,15.8,20.0,0.000,0.000,1011.000,0.0,34.8
"2017-08-23 16:05:00",36.0,36.0,36.0,20.0,9.7,6.1,15.8,0.0,0.000,0.000,1011.100,0.0,34.7
"2017-08-23 16:10:00",36.0,36.0,36.0,20.0,9.7,7.4,15.8,0.0,0.000,0.000,1011.100,0.0,34.5
"2017-08-23 16:15:00",36.0,36.0,36.0,20.0,9.7,6.7,15.8,305.0,0.000,0.000,1011.000,0.0,34.6
"2017-08-23 16:20:00",36.0,36.0,36.0,20.0,9.7,6.4,15.8,277.0,0.000,0.000,1011.000,0.0,34.6
"2017-08-23 16:25:00",36.1,36.1,36.0,20.0,9.8,7.1,31.7,333.0,0.000,0.000,1011.000,0.0,34.6
"2017-08-23 16:30:00",35.7,35.7,35.7,21.0,10.2,8.3,31.7,183.0,0.000,0.000,1011.100,0.0,34.1
"2017-08-23 16:35:00",35.7,35.8,35.7,21.0,10.2,8.0,31.7,337.0,0.000,0.000,1011.100,0.0,34.2
"2017-08-23 16:40:00",35.6,35.7,35.5,21.0,10.1,7.6,22.0,316.0,0.000,0.000,1011.100,0.0,34.1
"2017-08-23 16:45:00",35.5,35.5,35.5,21.0,10.0,7.6,22.0,224.0,0.000,0.000,1011.000,0.0,34.0
"2017-08-23 16:50:00",35.5,35.5,35.5,21.0,10.0,6.2,22.0,239.0,0.000,0.000,1011.100,0.0,34.3
"2017-08-23 16:55:00",35.5,35.5,35.5,21.0,10.0,5.6,14.8,268.0,0.000,0.000,1011.000,0.0,34.4
"2017-08-23 17:00:00",35.5,35.6,35.5,21.0,10.0,5.7,12.2,0.0,0.000,0.000,1011.000,0.0,34.4
"2017-08-23 17:05:00",35.6,35.6,35.4,21.0,10.1,6.4,15.8,275.0,0.000,0.000,1011.000,0.0,34.3
"2017-08-23 17:10:00",35.4,35.5,35.4,20.4,9.5,6.6,18.4,284.0,0.000,0.000,1010.900,0.0,34.0
"2017-08-23 17:15:00",35.4,35.4,35.4,20.0,9.2,5.2,18.4,286.0,0.000,0.000,1010.900,0.0,34.2
"2017-08-23 17:20:00",35.5,35.6,35.4,20.2,9.4,4.1,18.4,340.0,0.000,0.000,1010.900,0.0,34.5
"2017-08-23 17:25:00",35.6,35.6,35.5,20.0,9.4,4.9,14.8,3.0,0.000,0.000,1010.900,0.0,34.4
"2017-08-23 17:30:00",35.5,35.5,35.4,20.0,9.3,5.6,17.3,337.0,0.000,0.000,1010.900,0.0,34.2
"2017-08-23 17:35:00",35.3,35.4,35.3,20.0,9.1,6.6,17.3,315.0,0.000,0.000,1010.900,0.0,33.8
"2017-08-23 17:40:00",35.2,35.2,35.1,20.2,9.1,7.1,17.3,348.0,0.000,0.000,1010.900,0.0,33.6
"2017-08-23 17:45:00",35.1,35.1,35.1,21.0,9.7,6.3,15.8,329.0,0.000,0.000,1010.900,0.0,33.8
"2017-08-23 17:50:00",35.1,35.1,35.0,21.0,9.7,5.4,15.8,350.0,0.000,0.000,1010.900,0.0,33.9
"2017-08-23 17:55:00",35.0,35.0,35.0,21.0,9.6,4.9,13.3,284.0,0.000,0.000,1010.900,0.0,33.9
"2017-08-23 18:00:00",35.0,35.0,35.0,21.0,9.6,4.6,12.2,262.0,0.000,0.000,1010.900,0.0,34.0
"2017-08-23 18:05:00",34.9,34.9,34.8,22.0,10.2,4.3,11.2,117.0,0.000,0.000,1010.900,0.0,34.0
"2017-08-23 18:10:00",34.6,34.8,34.5,22.0,9.9,4.7,14.8,329.0,0.000,0.000,1010.900,0.0,33.7
"2017-08-23 18:15:00",34.3,34.4,34.2,22.0,9.7,5.3,14.8,210.0,0.000,0.000,1010.900,0.0,33.2
"2017-08-23 18:20:00",34.2,34.2,34.1,22.0,9.6,4.8,14.8,328.0,0.000,0.000,1010.900,0.0,33.1
"2017-08-23 18:25:00",33.9,34.0,33.9,22.6,9.8,4.3,12.2,307.0,0.000,0.000,1010.900,0.0,33.0
"2017-08-23 18:30:00",33.8,33.8,33.8,23.0,9.9,4.7,12.2,270.0,0.000,0.000,1011.000,0.0,32.9
"2017-08-23 18:35:00",33.6,33.7,33.5,23.0,9.7,4.3,12.2,12.0,0.000,0.000,1011.000,0.0,32.7
"2017-08-23 18:40:00",33.4,33.5,33.4,23.0,9.6,3.3,9.7,224.0,0.000,0.000,1011.000,0.0,32.7
"2017-08-23 18:45:00",33.3,33.4,33.2,23.0,9.5,2.8,8.6,238.0,0.000,0.000,1011.000,0.0,32.6
"2017-08-23 18:50:00",33.2,33.2,33.1,23.8,9.8,2.3,8.6,12.0,0.000,0.000,1011.000,0.0,32.7
"2017-08-23 18:55:00",33.1,33.1,33.0,23.6,9.6,2.5,8.6,305.0,0.000,0.000,1011.100,0.0,32.5
"2017-08-23 19:00:00",32.9,33.0,32.9,21.5,8.2,3.4,8.6,231.0,0.000,0.000,1011.100,0.0,31.8
"2017-08-23 19:05:00",32.8,32.9,32.6,21.0,7.7,3.5,8.6,276.0,0.000,0.000,1011.200,0.0,31.5
"2017-08-23 19:10:00",32.5,32.6,32.3,21.0,7.5,3.0,8.6,216.0,0.000,0.000,1011.200,0.0,31.2
"2017-08-23 19:15:00",32.1,32.3,32.0,21.0,7.1,3.6,8.6,241.0,0.000,0.000,1011.200,0.0,30.7
"2017-08-23 19:20:00",32.0,32.1,31.9,21.4,7.3,4.7,8.6,229.0,0.000,0.000,1011.300,0.0,30.4
"2017-08-23 19:25:00",31.8,31.9,31.8,22.2,7.7,5.3,9.7,234.0,0.000,0.000,1011.300,0.0,30.3
"2017-08-23 19:30:00",31.8,31.8,31.7,23.0,8.2,5.7,9.7,252.0,0.000,0.000,1011.300,0.0,30.2
"2017-08-23 19:35:00",31.7,31.7,31.6,23.0,8.1,6.0,9.7,217.0,0.000,0.000,1011.400,0.0,30.1
"2017-08-23 19:40:00",31.6,31.6,31.6,23.0,8.0,6.3,9.7,233.0,0.000,0.000,1011.400,0.0,29.9
"2017-08-23 19:45:00",31.6,31.6,31.6,23.0,8.0,6.7,12.2,233.0,0.000,0.000,1011.500,0.0,29.8
"2017-08-23 19:50:00",31.6,31.6,31.5,23.0,8.0,6.9,12.2,220.0,0.000,0.000,1011.500,0.0,29.7
"2017-08-23 19:55:00",31.5,31.6,31.5,23.0,7.9,6.6,12.2,233.0,0.000,0.000,1011.500,0.0,29.7
"2017-08-23 20:00:00",31.5,31.5,31.5,23.0,7.9,6.6,11.2,257.0,0.000,0.000,1011.600,0.0,29.7
"2017-08-23 20:05:00",31.4,31.4,31.4,23.0,7.9,6.8,11.2,224.0,0.000,0.000,1011.700,0.0,29.6
"2017-08-23 20:10:00",31.3,31.4,31.2,23.0,7.8,7.0,11.2,239.0,0.000,0.000,1011.800,0.0,29.4
"2017-08-23 20:15:00",31.2,31.2,31.2,23.0,7.7,7.6,11.2,249.0,0.000,0.000,1011.800,0.0,29.2
"2017-08-23 20:20:00",31.2,31.2,31.2,23.0,7.7,7.6,12.2,216.0,0.000,0.000,1011.900,0.0,29.1
"2017-08-23 20:25:00",31.2,31.2,31.2,23.0,7.7,7.1,13.3,223.0,0.000,0.000,1011.900,0.0,29.3
"2017-08-23 20:30:00",31.2,31.2,31.2,23.0,7.7,6.5,13.3,241.0,0.000,0.000,1011.900,0.0,29.4
"2017-08-23 20:35:00",31.2,31.2,31.2,23.0,7.7,6.3,13.3,209.0,0.000,0.000,1011.900,0.0,29.4
"2017-08-23 20:40:00",31.2,31.2,31.1,23.0,7.7,6.5,12.2,224.0,0.000,0.000,1012.000,0.0,29.4
"2017-08-23 20:45:00",31.1,31.1,31.1,23.4,7.8,6.1,12.2,233.0,0.000,0.000,1012.000,0.0,29.4
"2017-08-23 20:50:00",31.1,31.1,31.1,24.0,8.2,6.0,11.2,233.0,0.000,0.000,1012.000,0.0,29.5
"2017-08-23 20:55:00",31.0,31.1,31.0,24.0,8.1,5.5,11.2,239.0,0.000,0.000,1012.000,0.0,29.5
"2017-08-23 21:00:00",31.0,31.0,31.0,25.0,8.7,4.8,8.6,219.0,0.000,0.000,1012.100,0.0,29.8
"2017-08-23 21:05:00",31.0,31.0,31.0,25.3,8.9,4.6,11.2,217.0,0.000,0.000,1012.100,0.0,29.8
"2017-08-23 21:10:00",31.0,31.0,31.0,26.0,9.3,4.4,11.2,224.0,0.000,0.000,1012.000,0.0,30.0
"2017-08-23 21:15:00",31.0,31.0,31.0,26.0,9.3,4.0,11.2,276.0,0.000,0.000,1012.100,0.0,30.1
"2017-08-23 21:20:00",31.0,31.0,31.0,26.0,9.3,3.8,9.7,205.0,0.000,0.000,1012.100,0.0,30.1
"2017-08-23 21:25:00",31.0,31.0,31.0,26.0,9.3,3.8,9.7,218.0,0.000,0.000,1012.100,0.0,30.1
"2017-08-23 21:30:00",31.1,31.1,31.1,26.0,9.4,4.3,9.7,247.0,0.000,0.000,1012.200,0.0,30.1
"2017-08-23 21:35:00",31.1,31.1,31.0,26.0,9.4,4.9,12.2,218.0,0.000,0.000,1012.100,0.0,30.0
"2017-08-23 21:40:00",31.0,31.0,31.0,26.4,9.5,5.1,12.2,249.0,0.000,0.000,1012.200,0.0,29.9
"2017-08-23 21:45:00",30.9,30.9,30.9,28.0,10.3,5.6,12.2,206.0,0.000,0.000,1012.300,0.0,29.9
"2017-08-23 21:50:00",30.8,30.9,30.8,28.0,10.2,5.5,11.2,206.0,0.000,0.000,1012.300,0.0,29.8
"2017-08-23 21:55:00",30.7,30.8,30.7,28.8,10.6,5.6,13.3,196.0,0.000,0.000,1012.400,0.0,29.8
"2017-08-23 22:00:00",30.8,30.9,30.7,29.0,10.8,5.7,13.3,157.0,0.000,0.000,1012.500,0.0,29.9
"2017-08-23 22:05:00",30.8,30.8,30.8,29.0,10.8,5.9,13.3,180.0,0.000,0.000,1012.500,0.0,29.9
"2017-08-23 22:10:00",30.8,30.8,30.7,29.0,10.8,6.1,11.2,180.0,0.000,0.000,1012.500,0.0,29.8
"2017-08-23 22:15:00",30.7,30.7,30.6,29.0,10.7,6.0,12.2,252.0,0.000,0.000,1012.500,0.0,29.7
"2017-08-23 22:20:00",30.5,30.6,30.5,29.0,10.5,5.6,12.2,194.0,0.000,0.000,1012.500,0.0,29.6
"2017-08-23 22:25:00",30.5,30.5,30.4,29.0,10.5,4.9,12.2,210.0,0.000,0.000,1012.600,0.0,29.6
"2017-08-23 22:30:00",30.5,30.5,30.4,29.0,10.5,5.8,13.3,197.0,0.000,0.000,1012.600,0.0,29.5
"2017-08-23 22:35:00",30.6,30.6,30.5,29.0,10.6,7.2,13.3,220.0,0.000,0.000,1012.600,0.0,29.4
"2017-08-23 22:40:00",30.5,30.5,30.5,29.0,10.5,7.8,14.8,241.0,0.000,0.000,1012.600,0.0,29.1
"2017-08-23 22:45:00",30.4,30.5,30.4,29.0,10.4,6.6,14.8,241.0,0.000,0.000,1012.600,0.0,29.3
"2017-08-23 22:50:00",30.3,30.4,30.2,29.0,10.3,4.6,14.8,356.0,0.000,0.000,1012.700,0.0,29.5
"2017-08-23 22:55:00",30.1,30.2,30.0,29.0,10.2,4.9,13.3,283.0,0.000,0.000,1012.800,0.0,29.2
"2017-08-23 23:00:00",30.0,30.0,29.9,29.5,10.3,5.6,13.3,269.0,0.000,0.000,1012.900,0.0,29.0
"2017-08-23 23:05:00",29.7,29.8,29.5,30.5,10.5,5.4,13.3,303.0,0.000,0.000,1012.900,0.0,28.8
"2017-08-23 23:10:00",29.1,29.3,28.9,31.4,10.5,5.6,13.3,295.0,0.000,0.000,1013.000,0.0,28.2
"2017-08-23 23:15:00",28.8,28.9,28.7,33.0,11.0,6.5,13.3,250.0,0.000,0.000,1013.100,0.0,27.8
"2017-08-23 23:20:00",28.5,28.7,28.4,33.0,10.7,7.2,17.3,261.0,0.000,0.000,1013.100,0.0,27.3
"2017-08-23 23:25:00",28.2,28.3,28.1,33.2,10.5,8.7,17.3,290.0,0.000,0.000,1013.200,0.0,26.7
"2017-08-23 23:30:00",28.0,28.1,28.0,34.0,10.7,10.0,17.3,270.0,0.000,0.000,1013.200,0.0,26.3
"2017-08-23 23:35:00",27.8,27.9,27.8,34.0,10.5,10.1,18.4,247.0,0.000,0.000,1013.200,0.0,26.1
"2017-08-23 23:40:00",27.7,27.8,27.6,35.0,10.9,10.2,18.4,293.0,0.000,0.000,1013.100,0.0,26.0
"2017-08-23 23:45:00",27.6,27.6,27.5,36.0,11.2,10.3,18.4,224.0,0.000,0.000,1013.200,0.0,25.9
"2017-08-23 23:50:00",27.5,27.5,27.5,36.0,11.1,9.6,19.4,291.0,0.000,0.000,1013.200,0.0,26.0
"2017-08-23 23:55:00",27.5,27.5,27.4,36.4,11.2,10.2,19.4,283.0,0.000,0.000,1013.200,0.0,25.9
"2017-08-24 00:00:00",27.4,27.4,27.3,37.0,11.4,11.7,19.4,241.0,0.000,0.000,1013.100,0.0,25.5
"2017-08-24 00:05:00",27.3,27.3,27.3,37.0,11.3,11.2,18.4,247.0,0.000,0.000,1013.000,0.0,25.6
"2017-08-24 00:10:00",27.4,27.5,27.3,37.0,11.4,10.3,18.4,250.0,0.000,0.000,1013.100,0.0,25.8
"2017-08-24 00:15:00",27.6,27.6,27.5,37.0,11.6,9.7,18.4,197.0,0.000,0.000,1013.100,0.0,26.1
"2017-08-24 00:20:00",27.6,27.6,27.6,37.0,11.6,9.2,19.4,241.0,0.000,0.000,1013.000,0.0,26.3
"2017-08-24 00:25:00",27.7,27.7,27.7,37.0,11.7,9.7,19.4,234.0,0.000,0.000,1013.000,0.0,26.3
"2017-08-24 00:30:00",27.7,27.7,27.7,37.0,11.7,10.7,19.4,244.0,0.000,0.000,1013.000,0.0,26.2
"2017-08-24 00:35:00",27.7,27.7,27.7,37.0,11.7,10.9,17.3,224.0,0.000,0.000,1012.900,0.0,26.1
"2017-08-24 00:40:00",27.8,27.8,27.7,37.0,11.8,10.7,18.4,207.0,0.000,0.000,1012.900,0.0,26.3
"2017-08-24 00:45:00",27.9,27.9,27.8,36.8,11.8,10.8,18.4,315.0,0.000,0.000,1012.800,0.0,26.3
"2017-08-24 00:50:00",28.0,28.0,27.9,36.8,11.9,11.2,18.4,244.0,0.000,0.000,1012.800,0.0,26.4
"2017-08-24 00:55:00",28.0,28.0,28.0,37.0,12.0,9.3,18.4,224.0,0.000,0.000,1012.800,0.0,26.8
"2017-08-24 01:00:00",28.0,28.1,28.0,38.0,12.4,7.4,14.8,221.0,0.000,0.000,1012.800,0.0,27.3
"2017-08-24 01:05:00",28.1,28.1,28.0,37.0,12.1,7.1,13.3,212.0,0.000,0.000,1012.700,0.0,27.3
"2017-08-24 01:10:00",28.1,28.1,28.0,37.2,12.2,7.4,15.8,216.0,0.000,0.000,1012.700,0.0,27.3
"2017-08-24 01:15:00",28.1,28.2,28.1,37.0,12.1,8.1,15.8,224.0,0.000,0.000,1012.700,0.0,27.2
"2017-08-24 01:20:00",28.2,28.3,28.2,37.0,12.1,8.1,14.8,240.0,0.000,0.000,1012.700,0.0,27.3
"2017-08-24 01:25:00",28.2,28.2,28.1,37.0,12.1,8.0,14.8,270.0,0.000,0.000,1012.600,0.0,27.3
"2017-08-24 01:30:00",28.1,28.1,28.1,37.0,12.1,8.1,14.8,229.0,0.000,0.000,1012.600,0.0,27.2
"2017-08-24 01:35:00",28.2,28.2,28.1,37.0,12.1,8.2,14.8,239.0,0.000,0.000,1012.500,0.0,27.2
"2017-08-24 01:40:00",28.2,28.2,28.2,37.0,12.1,8.9,14.8,210.0,0.000,0.000,1012.500,0.0,27.1
"2017-08-24 01:45:00",28.3,28.3,28.2,36.2,11.8,7.9,14.8,244.0,0.000,0.000,1012.500,0.0,27.3
"2017-08-24 01:50:00",28.1,28.2,28.1,36.0,11.6,6.7,14.8,197.0,0.000,0.000,1012.500,0.0,27.3
"2017-08-24 01:55:00",28.1,28.1,28.1,36.0,11.6,6.9,14.8,216.0,0.000,0.000,1012.500,0.0,27.2
"2017-08-24 02:00:00",28.1,28.1,28.1,36.0,11.6,7.4,15.8,250.0,0.000,0.000,1012.400,0.0,27.2
"2017-08-24 02:05:00",28.1,28.1,28.1,36.0,11.6,7.4,15.8,224.0,0.000,0.000,1012.400,0.0,27.2
"2017-08-24 02:10:00",28.1,28.1,28.1,36.0,11.6,6.7,15.8,224.0,0.000,0.000,1012.500,0.0,27.3
"2017-08-24 02:15:00",28.0,28.1,28.0,36.0,11.6,6.4,13.3,204.0,0.000,0.000,1012.500,0.0,27.3
"2017-08-24 02:20:00",28.0,28.0,28.0,36.0,11.6,7.4,13.3,228.0,0.000,0.000,1012.500,0.0,27.0
"2017-08-24 02:25:00",27.9,28.0,27.9,36.0,11.5,7.3,13.3,228.0,0.000,0.000,1012.400,0.0,27.0
"2017-08-24 02:30:00",27.9,27.9,27.9,36.0,11.5,6.0,11.2,239.0,0.000,0.000,1012.500,0.0,27.2
"2017-08-24 02:35:00",27.9,27.9,27.9,36.0,11.5,4.6,11.2,260.0,0.000,0.000,1012.500,0.0,27.5
"2017-08-24 02:40:00",27.9,27.9,27.8,35.8,11.4,3.1,11.2,51.0,0.000,0.000,1012.500,0.0,27.7
"2017-08-24 02:45:00",27.5,27.8,27.3,36.0,11.1,3.2,8.6,35.0,0.000,0.000,1012.500,0.0,27.3
"2017-08-24 02:50:00",26.9,27.2,26.7,36.6,10.8,4.1,8.6,53.0,0.000,0.000,1012.600,0.0,26.4
"2017-08-24 02:55:00",26.4,26.5,26.2,37.6,10.7,3.3,8.6,173.0,0.000,0.000,1012.600,0.0,26.0
"2017-08-24 03:00:00",26.2,26.2,26.2,38.0,10.8,2.5,6.1,228.0,0.000,0.000,1012.500,0.0,26.0
"2017-08-24 03:05:00",26.1,26.2,26.0,38.0,10.7,2.5,6.1,162.0,0.000,0.000,1012.600,0.0,25.8
"2017-08-24 03:10:00",25.7,25.9,25.6,39.6,11.0,3.0,6.1,180.0,0.000,0.000,1012.600,0.0,25.5
"2017-08-24 03:15:00",25.4,25.5,25.3,40.0,10.8,3.2,6.1,180.0,0.000,0.000,1012.500,0.0,25.1
"2017-08-24 03:20:00",25.2,25.3,25.2,40.0,10.6,2.0,6.1,76.0,0.000,0.000,1012.600,0.0,25.0
"2017-08-24 03:25:00",25.2,25.3,25.2,40.0,10.6,0.6,5.0,115.0,0.000,0.000,1012.600,0.0,25.3
"2017-08-24 03:30:00",25.3,25.3,25.3,40.0,10.7,0.5,3.6,139.0,0.000,0.000,1012.700,0.0,25.4
"2017-08-24 03:35:00",25.3,25.4,25.3,40.0,10.7,0.6,3.6,143.0,0.000,0.000,1012.700,0.0,25.4
"2017-08-24 03:40:00",25.4,25.4,25.4,39.8,10.7,0.4,3.6,99.0,0.000,0.000,1012.700,0.0,25.6
"2017-08-24 03:45:00",25.4,25.4,25.4,39.0,10.4,1.6,9.7,135.0,0.000,0.000,1012.700,0.0,25.3
"2017-08-24 03:50:00",25.3,25.4,25.3,39.0,10.3,4.0,9.7,171.0,0.000,0.000,1012.700,0.0,24.7
"2017-08-24 03:55:00",25.2,25.2,25.1,39.0,10.2,5.0,9.7,162.0,0.000,0.000,1012.700,0.0,24.3
"2017-08-24 04:00:00",25.0,25.0,24.9,39.4,10.2,4.8,9.7,171.0,0.000,0.000,1012.700,0.0,24.1
"2017-08-24 04:05:00",24.9,24.9,24.9,40.0,10.4,4.6,8.6,158.0,0.000,0.000,1012.800,0.0,24.1
"2017-08-24 04:10:00",24.9,24.9,24.9,40.0,10.4,4.7,7.2,158.0,0.000,0.000,1012.800,0.0,24.1
"2017-08-24 04:15:00",24.5,24.6,24.4,41.0,10.4,4.6,6.1,159.0,0.000,0.000,1012.800,0.0,23.7
"2017-08-24 04:20:00",24.4,24.4,24.4,41.0,10.3,2.9,6.1,224.0,0.000,0.000,1012.800,0.0,24.0
"2017-08-24 04:25:00",24.4,24.5,24.4,41.0,10.3,1.8,6.1,224.0,0.000,0.000,1012.800,0.0,24.2
"2017-08-24 04:30:00",24.7,24.8,24.6,41.0,10.5,1.7,5.0,224.0,0.000,0.000,1012.800,0.0,24.5
"2017-08-24 04:35:00",24.8,24.9,24.8,41.0,10.6,1.3,5.0,114.0,0.000,0.000,1012.900,0.0,24.8
"2017-08-24 04:40:00",24.8,24.9,24.7,41.0,10.6,2.1,6.1,142.0,0.000,0.000,1012.800,0.0,24.6
"2017-08-24 04:45:00",24.6,24.7,24.5,41.0,10.5,2.7,6.1,180.0,0.000,0.000,1012.800,0.0,24.2
"2017-08-24 04:50:00",24.4,24.5,24.4,41.4,10.5,2.2,6.1,216.0,0.000,0.000,1012.900,0.0,24.2
"2017-08-24 04:55:00",24.3,24.4,24.3,42.0,10.5,1.8,6.1,179.0,0.000,0.000,1012.900,0.0,24.1
"2017-08-24 05:00:00",24.1,24.2,24.0,42.0,10.4,2.2,6.1,159.0,0.000,0.000,1012.900,0.0,23.9
"2017-08-24 05:05:00",24.0,24.0,23.8,42.4,10.4,2.8,6.1,202.0,0.000,0.000,1012.900,0.0,23.6
"2017-08-24 05:10:00",23.7,23.8,23.6,44.0,10.7,2.7,6.1,175.0,0.000,0.000,1012.900,0.0,23.5
"2017-08-24 05:15:00",23.5,23.6,23.4,44.0,10.5,2.6,6.1,180.0,0.000,0.000,1013.000,0.0,23.2
"2017-08-24 05:20:00",23.2,23.3,23.2,44.0,10.2,2.8,6.1,188.0,0.000,0.000,1012.900,0.0,22.8
"2017-08-24 05:25:00",23.0,23.1,23.0,44.6,10.3,3.1,6.1,171.0,0.000,0.000,1012.900,0.0,22.6
"2017-08-24 05:30:00",22.8,22.9,22.7,45.8,10.5,3.5,7.2,171.0,0.000,0.000,1012.800,0.0,22.3
"2017-08-24 05:35:00",22.7,22.7,22.6,46.0,10.4,3.7,7.2,184.0,0.000,0.000,1012.900,0.0,22.1
"2017-08-24 05:40:00",22.6,22.6,22.5,46.2,10.4,2.9,7.2,188.0,0.000,0.000,1012.900,0.0,22.2
"2017-08-24 05:45:00",22.4,22.5,22.4,47.0,10.5,3.2,6.1,197.0,0.000,0.000,1012.900,0.0,22.0
"2017-08-24 05:50:00",22.4,22.4,22.4,47.0,10.5,3.7,7.2,197.0,0.000,0.000,1012.900,0.0,21.9
"2017-08-24 05:55:00",22.4,22.4,22.4,47.0,10.5,3.5,7.2,180.0,0.000,0.000,1013.000,0.0,21.9
"2017-08-24 06:00:00",22.3,22.4,22.3,47.0,10.4,3.8,7.2,180.0,0.000,0.000,1012.900,0.0,21.8
"2017-08-24 06:05:00",22.3,22.3,22.3,47.0,10.4,3.8,6.1,180.0,0.000,0.000,1012.800,0.0,21.7
"2017-08-24 06:10:00",22.4,22.5,22.3,47.0,10.5,3.5,6.1,180.0,0.000,0.000,1012.900,0.0,21.9
"2017-08-24 06:15:00",22.5,22.6,22.5,47.6,10.8,3.4,6.1,171.0,0.000,0.000,1013.000,0.0,22.1
"2017-08-24 06:20:00",22.7,22.8,22.6,48.0,11.1,3.4,6.1,171.0,0.000,0.000,1013.000,0.0,22.4
"2017-08-24 06:25:00",23.0,23.1,22.8,48.0,11.4,3.2,6.1,202.0,0.000,0.000,1013.000,0.0,22.7
"2017-08-24 06:30:00",23.2,23.3,23.1,48.0,11.6,2.7,6.1,188.0,0.000,0.000,1013.000,0.0,23.2
"2017-08-24 06:35:00",23.5,23.6,23.4,47.8,11.7,2.3,6.1,180.0,0.000,0.000,1013.100,0.0,23.6
"2017-08-24 06:40:00",23.8,24.0,23.7,46.8,11.7,1.4,6.1,224.0,0.000,0.000,1013.100,0.0,24.1
"2017-08-24 06:45:00",24.2,24.4,24.0,45.4,11.6,0.9,3.6,224.0,0.000,0.000,1013.100,0.0,24.5
"2017-08-24 06:50:00",24.8,25.0,24.5,44.8,11.9,0.6,3.6,224.0,0.000,0.000,1013.100,0.0,25.3
"2017-08-24 06:55:00",25.2,25.3,25.1,43.4,11.8,0.4,3.6,224.0,0.000,0.000,1013.200,0.0,25.7
"2017-08-24 07:00:00",25.4,25.6,25.3,42.6,11.8,0.8,5.0,224.0,0.000,0.000,1013.200,0.0,25.8
"2017-08-24 07:05:00",25.6,25.7,25.6,41.4,11.5,2.0,8.6,45.0,0.000,0.000,1013.300,0.0,25.7
"2017-08-24 07:10:00",25.5,25.5,25.4,41.0,11.3,3.5,8.6,76.0,0.000,0.000,1013.300,0.0,25.2
"2017-08-24 07:15:00",25.5,25.5,25.4,41.0,11.3,3.8,8.6,62.0,0.000,0.000,1013.300,0.0,25.1
"2017-08-24 07:20:00",25.7,25.9,25.6,41.0,11.5,2.5,7.2,69.0,0.000,0.000,1013.300,0.0,25.7
"2017-08-24 07:25:00",26.0,26.0,25.9,39.6,11.2,1.8,6.1,62.0,0.000,0.000,1013.300,0.0,26.0
"2017-08-24 07:30:00",26.0,26.0,26.0,39.0,11.0,2.9,7.2,99.0,0.000,0.000,1013.300,0.0,25.7
"2017-08-24 07:35:00",26.2,26.2,26.1,39.0,11.1,3.4,7.2,83.0,0.000,0.000,1013.300,0.0,25.9
"2017-08-24 07:40:00",26.3,26.5,26.2,39.0,11.2,3.2,7.2,79.0,0.000,0.000,1013.300,0.0,26.1